Bibliothèque

Titres (21)
Titre Album Durée Date
Kinetic Zero 5:00 29 nov. 2012, 17h00m
Kinetic Zero 5:00 23 nov. 2012, 16h54m
Kinetic Zero 5:00 25 août 2012, 7h38m
Kinetic Zero 5:00 16 août 2012, 18h20m
Kinetic Zero 5:00 11 août 2012, 19h11m
Kinetic Zero 5:00 5 août 2012, 22h34m
Kinetic Zero 5:00 28 jui. 2012, 0h38m
Kinetic Zero 5:00 17 jui. 2012, 20h17m
Kinetic Zero 5:00 30 juin 2012, 3h42m
Kinetic Zero 5:00 8 juin 2012, 19h44m
Kinetic Zero 5:00 2 juin 2012, 7h02m
Kinetic Zero 5:00 29 mai 2012, 19h20m
Kinetic Zero 5:00 19 mai 2012, 17h35m
Kinetic Zero 5:00 15 mai 2012, 21h38m
Kinetic Zero 5:00 11 mai 2012, 20h03m
Kinetic Zero 5:00 7 mai 2012, 2h59m
Kinetic Zero 5:00 6 mai 2012, 3h54m
Kinetic Zero 5:00 5 mai 2012, 6h26m
Kinetic Zero 5:00 27 avr. 2012, 15h38m
Kinetic Zero 5:00 24 avr. 2012, 14h44m
Kinetic Zero 5:00 17 avr. 2012, 17h21m